This is the latest recevied weather packets stored in our database for station/object ZL1CTS-13. If no packets are shown the sender has not sent any weather packets the latest 10 day(s).
| Time | Temp. | Humidity | Pressure | Rain* | Wind** | Luminosity | Snow |
|---|---|---|---|---|---|---|---|
| 1777329004 | 20.56° C | 74% | 1015.9 hPa | 0 mm | - | - | - |
| 1777328404 | 20.56° C | 75% | 1015.9 hPa | 0 mm | - | - | - |
| 1777327804 | 20.56° C | 75% | 1015.8 hPa | 0 mm | - | - | - |
| 1777327203 | 20.56° C | 76% | 1015.9 hPa | 0 mm | - | - | - |
| 1777326604 | 20° C | 82% | 1015.9 hPa | 0 mm | - | - | - |
| 1777326004 | 20° C | 95% | 1015.9 hPa | 0 mm | - | - | - |
| 1777325404 | 17.78° C | 97% | 1015.7 hPa | 0 mm | - | - | - |
| 1777324804 | 15.56° C | 99% | 1015.8 hPa | 0 mm | - | - | - |
| 1777324204 | 15.56° C | 99% | 1015.8 hPa | 0 mm | - | - | - |
| 1777323604 | 15.56° C | 99% | 1015.9 hPa | 0 mm | - | - | - |
| 1777323005 | 13.89° C | 99% | 1015.7 hPa | 0 mm | - | - | - |
| 1777322403 | 13.89° C | 99% | 1015.8 hPa | 0 mm | - | - | - |
| 1777321804 | 12.78° C | 97% | 1015.6 hPa | 0 mm | - | - | - |
| 1777321204 | 11.67° C | 98% | 1015.6 hPa | 0 mm | - | - | - |
| 1777320604 | 11.11° C | 98% | 1015.4 hPa | 0 mm | - | - | - |
| 1777320004 | 10.56° C | 99% | 1015.2 hPa | 0 mm | - | - | - |
| 1777319404 | 10.56° C | 99% | 1015.3 hPa | 0 mm | - | - | - |
| 1777318804 | 10.56° C | 99% | 1015.1 hPa | 0 mm | - | - | - |
| 1777318203 | 10° C | 99% | 1015 hPa | 0 mm | - | - | - |
| 1777317604 | 10.56° C | 99% | 1015 hPa | 0 mm | - | - | - |
| 1777317004 | 10.56° C | 99% | 1014.8 hPa | 0 mm | - | - | - |
| 1777316404 | 10.56° C | 99% | 1014.7 hPa | 0 mm | - | - | - |
| 1777315804 | 10.56° C | 99% | 1014.6 hPa | 0 mm | - | - | - |
| 1777315204 | 10.56° C | 99% | 1014.6 hPa | 0 mm | - | - | - |
| 1777314604 | 10.56° C | 99% | 1014.5 hPa | 0 mm | - | - | - |
* Rain latest hour (hover to see other rain measurements)
** Current wind speed in m/s (hover to see current wind gust speed)